This demonstration page uses our WeatherBlox Daily Observations layout. Learn more.

41.55636, -103.73856

Hourly Observations for March 10, 2019

Temp ( °F °C ) Dew Point ( °F °C ) Humidity (%) Winds ( mph kmh ) Pressure ( in mb ) Visibility ( mi km ) Precip ( " mm )
12:58 am 00:58 Clear 20 -6.9 15 -9.6 81 81 N 7 11 30.04 1017 10 16.0934 0 0
1:58 am 01:58 Clear 21 -5.9 16 -8.7 81 81 N 3 6 30.06 1018 10 16.0934 0 0
2:58 am 02:58 Clear 21 -6.3 18 -8 88 88 Calm 30.09 1019 10 16.0934 0 0
3:58 am 03:58 Clear 19 -7.3 15 -9.5 84 84 SSE 7 11 30.11 1020 10 16.0934 0 0
4:58 am 04:58 Clear 17 -8.4 15 -9.4 93 93 Calm 30.14 1021 10 16.0934 0 0
5:58 am 05:58 Clear 19 -7.5 15 -9.3 87 87 Calm 30.14 1021 10 16.0934 0 0
6:58 am 06:58 Mostly Clear 17 -8.5 13 -10.3 87 87 SSW 7 11 30.15 1021 10 16.0934 0 0
7:58 am 07:58 Clear 19 -7.1 14 -9.8 81 81 SW 7 11 30.14 1021 10 16.0934 0 0
9:58 am 09:58 Mostly Clear 21 -6.1 14 -10.1 74 74 NW 3 6 30.12 1020 10 16.0934 0 0
10:58 am 10:58 Mostly Cloudy 16 -8.9 11 -11.7 80 80 SSW 13 20 30.17 1022 10 16.0934 0 0
11:58 am 11:58 Mostly Cloudy 20 -6.4 16 -8.9 83 83 SSW 13 20 30.16 1022 10 16.0934 0 0
12:58 pm 12:58 Mostly Cloudy 23 -4.8 20 -6.9 85 85 S 14 22 30.19 1022 10 16.0934 0 0
1:58 pm 13:58 Mostly Cloudy 25 -4.1 21 -6.2 86 86 SW 10 17 30.19 1022 10 16.0934 0 0
2:58 pm 14:58 Mostly Cloudy 25 -4 20 -6.8 81 81 S 10 17 30.19 1022 10 16.0934 0 0
3:58 pm 15:58 Mostly Cloudy 28 -2.3 22 -5.8 77 77 SSW 12 19 30.19 1022 10 16.0934 0 0
4:58 pm 16:58 Mostly Sunny 31 -0.8 23 -4.9 74 74 S 12 19 30.2 1023 10 16.0934 0.02 0.508
5:58 pm 17:58 Sunny 32 -0.1 25 -4 75 75 SSW 6 9 30.18 1022 10 16.0934 0.01 0.254
6:58 pm 18:58 Mostly Sunny 34 1.3 27 -3 73 73 SSW 10 17 30.17 1022 10 16.0934 0 0
7:58 pm 19:58 Sunny 37 2.5 26 -3.5 65 65 SSW 13 20 30.12 1020 10 16.0934 0 0
8:58 pm 20:58 Mostly Sunny 38 3.1 26 -3.2 64 64 SSW 6 9 30.12 1020 10 16.0934 0 0
9:58 pm 21:58 Mostly Sunny 39 3.8 27 -2.6 63 63 Calm 30.1 1019 10 16.0934 0 0
10:58 pm 22:58 Sunny 37 2.7 27 -2.6 68 68 ENE 5 7 30.14 1021 10 16.0934 0 0
11:58 pm 23:58 Mostly Cloudy 36 2 27 -2.7 71 71 NNE 8 13 30.12 1020 10 16.0934 0 0

Powered by AerisWeather